Weather History for Detroit Metro, MI

Change the Weather History Date:

Monday, July 8, 2013

  Actual Average Record
Temperature  
Mean Temperature 76 °F 74 °F  
Max Temperature 83 °F 84 °F 104 °F (1936)
Min Temperature 68 °F 64 °F 45 °F (1984)
Degree Days  
Heating Degree Days 0 0  
Month to date heating degree days 0 0  
Since 1 June heating degree days 23 35  
Since 1 July heating degree days 0 0  
Cooling Degree Days 11 9  
Month to date cooling degree days 69 69  
Year to date cooling degree days 342 284  
Since 1 June cooling degree days 239 236  
Growing Degree Days 25 (Base 50)    
Moisture  
Dew Point 69 °F    
Average Humidity 81    
Maximum Humidity 93    
Minimum Humidity 69    
Precipitation  
Precipitation 0.38 in 0.10 in 2.80 in (1957)
Month to date precipitation 2.16 0.82  
Year to date precipitation 23.02 16.88  
Snow  
Snow 0.00 in 0.00 in 0.00 in ()
Month to date snowfall 0.0 0.0  
Since 1 June snowfall 0.0 0.0  
Since 1 July snowfall 0.0 0.0  
Snow Depth 0.00 in    
Sea Level Pressure  
Sea Level Pressure 30.02 in    
Wind  
Wind Speed 7 mph (SSE)    
Max Wind Speed 24 mph    
Max Gust Speed 30 mph    
Visibility 7 miles    
Events Rain , Thunderstorm    
T = Trace of Precipitation, MM = Missing Value Source: NWS Daily Summary

Daily Weather History Graph

Daily Weather History Graph

Search for Another Location

Airport:

Trip Planner

Search our weather history database for the weather conditions in past years. The results will help you decide how hot, cold, wet, or windy it might be!

Date:

Astronomy

Jul. 08, 2013 Rise Set
Actual Time 6:05 AM EDT 9:11 PM EDT
Civil Twilight 5:31 AM EDT 9:45 PM EDT
Nautical Twilight 4:47 AM EDT 10:28 PM EDT
Astronomical Twilight 3:55 AM EDT 11:20 PM EDT
Moon 6:35 AM EDT (7/8) 9:10 PM EDT (7/8)
Length of Visible Light 16h 14m
Length of Day
15h 06m
New Moon, 0% of the Moon is Illuminated
Jul 8
New Moon
Jul 15
First Quarter
Jul 22
Full
Jul 29
Last Quarter
Aug 6
New

Hourly Weather History & Observations

Time (EDT) Temp. Heat Index Dew Point Humidity Pressure Visibility Wind Dir Wind Speed Gust Speed Precip Events Conditions
12:53 AM 70.0 °F - 66.0 °F 87% 30.05 in 10.0 mi SW 9.2 mph - 0.00 in   Overcast
1:53 AM 70.0 °F - 66.0 °F 87% 30.03 in 10.0 mi SW 5.8 mph - N/A   Overcast
2:53 AM 69.1 °F - 66.0 °F 90% 30.03 in 8.0 mi South 6.9 mph - N/A   Overcast
3:53 AM 69.1 °F - 64.9 °F 87% 30.03 in 9.0 mi SSE 3.5 mph - N/A   Mostly Cloudy
4:53 AM 69.1 °F - 66.0 °F 90% 30.04 in 9.0 mi South 4.6 mph - N/A   Mostly Cloudy
5:53 AM 69.1 °F - 66.0 °F 90% 30.03 in 6.0 mi South 4.6 mph - N/A   Mostly Cloudy
6:53 AM 69.1 °F - 66.0 °F 90% 30.03 in 6.0 mi South 6.9 mph - N/A   Mostly Cloudy
7:53 AM 71.1 °F - 66.9 °F 87% 30.05 in 6.0 mi WSW 4.6 mph - N/A   Mostly Cloudy
8:53 AM 73.9 °F - 68.0 °F 82% 30.04 in 10.0 mi South 8.1 mph - N/A   Mostly Cloudy
9:53 AM 75.9 °F - 69.1 °F 79% 30.05 in 10.0 mi SSW 6.9 mph - N/A   Overcast
10:53 AM 80.1 °F 83.6 °F 71.1 °F 74% 30.05 in 10.0 mi South 8.1 mph - N/A   Mostly Cloudy
11:53 AM 81.0 °F 84.9 °F 71.1 °F 72% 30.04 in 10.0 mi South 8.1 mph - N/A   Overcast
12:53 PM 81.0 °F 84.9 °F 71.1 °F 72% 30.04 in 10.0 mi South 10.4 mph - N/A   Overcast
1:53 PM 82.9 °F 88.0 °F 72.0 °F 69% 30.00 in 10.0 mi SE 9.2 mph - N/A   Overcast
2:06 PM 80.6 °F 83.9 °F 69.8 °F 70% 30.02 in 0.8 mi SSW 23.0 mph 29.9 mph 0.00 in Rain Light Rain
2:08 PM 78.8 °F - 66.2 °F 65% 30.01 in 7.0 mi South 20.7 mph 29.9 mph 0.00 in Rain , Thunderstorm Light Thunderstorms and Rain
2:25 PM 77.0 °F - 66.2 °F 69% 30.00 in 10.0 mi South 9.2 mph - 0.00 in Rain Light Rain
2:53 PM 77.0 °F - 68.0 °F 74% 30.00 in 10.0 mi SSE 10.4 mph - 0.00 in   Overcast
3:28 PM 78.8 °F - 69.8 °F 74% 30.01 in 10.0 mi South 11.5 mph - N/A Rain , Thunderstorm Light Thunderstorms and Rain
3:53 PM 75.9 °F - 71.1 °F 85% 30.01 in 4.0 mi West 9.2 mph - N/A Rain , Thunderstorm Light Thunderstorms and Rain
4:31 PM 75.2 °F - 69.8 °F 83% 30.02 in 2.0 mi SSE 19.6 mph 27.6 mph N/A Rain , Thunderstorm Heavy Thunderstorms and Rain
4:40 PM 73.4 °F - 69.8 °F 88% 30.03 in 3.0 mi South 18.4 mph 28.8 mph 0.19 in Rain , Thunderstorm Heavy Thunderstorms and Rain
4:53 PM 72.0 °F - 70.0 °F 93% 30.04 in 4.0 mi East 8.1 mph - 0.25 in Rain , Thunderstorm Heavy Thunderstorms and Rain
4:59 PM 71.6 °F - 69.8 °F 94% 30.03 in 4.0 mi ESE 6.9 mph - 0.01 in Rain Rain
5:53 PM 73.0 °F - 70.0 °F 90% 30.01 in 9.0 mi ESE 6.9 mph - 0.01 in   Mostly Cloudy
6:03 PM 73.4 °F - 69.8 °F 88% 30.03 in 1.0 mi ESE 5.8 mph - 0.03 in Rain Heavy Rain
6:14 PM 73.4 °F - 69.8 °F 88% 30.01 in 4.0 mi Variable 3.5 mph - 0.09 in Rain Heavy Rain
6:53 PM 73.0 °F - 70.0 °F 90% 30.00 in 9.0 mi ESE 9.2 mph - 0.11 in   Overcast
7:53 PM 73.0 °F - 70.0 °F 90% 30.01 in 7.0 mi SE 9.2 mph - N/A   Overcast
8:53 PM 73.0 °F - 70.0 °F 90% 30.01 in 8.0 mi SE 6.9 mph - 0.01 in   Overcast
9:53 PM 73.0 °F - 70.0 °F 90% 30.00 in 8.0 mi SSE 4.6 mph - 0.00 in Rain Light Rain
10:53 PM 73.0 °F - 71.1 °F 93% 30.01 in 7.0 mi SSE 8.1 mph - 0.00 in   Overcast
11:53 PM 73.0 °F - 71.1 °F 93% 30.00 in 8.0 mi SSE 6.9 mph - N/A   Mostly Cloudy